TimeEST,TemperatureF,Dew PointF,Humidity,Sea Level PressureIn,VisibilityMPH,Wind Direction,Wind SpeedMPH,Gust SpeedMPH,PrecipitationIn,Events,Conditions,WindDirDegrees,DateUTC
12:53 AM,32.0,26.1,79,30.19,9.0,WNW,3.5,-,N/A,,Partly Cloudy,300,2013-03-07 05:53:00
1:53 AM,32.0,27.0,82,30.19,7.0,WNW,5.8,-,N/A,,Overcast,300,2013-03-07 06:53:00
2:53 AM,32.0,27.0,82,30.19,6.0,WNW,5.8,-,N/A,,Haze,290,2013-03-07 07:53:00
3:53 AM,32.0,28.0,85,30.19,7.0,Calm,Calm,-,N/A,,Overcast,0,2013-03-07 08:53:00
4:53 AM,32.0,28.0,85,30.21,8.0,WNW,4.6,-,N/A,,Overcast,290,2013-03-07 09:53:00
5:53 AM,33.1,28.0,82,30.22,8.0,WNW,3.5,-,N/A,,Overcast,290,2013-03-07 10:53:00
6:53 AM,33.1,28.0,82,30.25,8.0,WNW,3.5,-,N/A,,Overcast,290,2013-03-07 11:53:00
7:53 AM,33.1,28.0,82,30.27,5.0,WNW,3.5,-,N/A,,Haze,290,2013-03-07 12:53:00
8:04 AM,33.8,28.4,81,30.25,5.0,WNW,4.6,-,N/A,,Haze,300,2013-03-07 13:04:00
8:53 AM,34.0,28.0,79,30.28,3.0,West,3.5,-,N/A,,Haze,280,2013-03-07 13:53:00
9:26 AM,33.8,28.4,81,30.26,2.5,West,3.5,-,0.00,Snow,Light Snow,280,2013-03-07 14:26:00
9:48 AM,33.8,28.4,81,30.27,3.0,WNW,4.6,-,0.00,,Haze,300,2013-03-07 14:48:00
9:53 AM,35.1,30.0,82,30.30,3.0,WNW,5.8,-,0.00,,Haze,300,2013-03-07 14:53:00
10:03 AM,35.6,30.2,81,30.27,3.0,WNW,4.6,-,N/A,,Haze,300,2013-03-07 15:03:00
10:41 AM,35.6,30.2,81,30.27,4.0,WNW,5.8,-,N/A,,Haze,300,2013-03-07 15:41:00
10:53 AM,36.0,28.9,76,30.30,5.0,NW,8.1,17.3,N/A,,Haze,310,2013-03-07 15:53:00
11:30 AM,37.4,28.4,70,30.28,6.0,WNW,10.4,-,N/A,,Haze,290,2013-03-07 16:30:00
11:53 AM,37.0,28.9,73,30.30,7.0,West,6.9,-,N/A,,Overcast,280,2013-03-07 16:53:00
12:53 PM,39.0,28.9,67,30.30,8.0,NW,9.2,-,N/A,,Overcast,320,2013-03-07 17:53:00
1:31 PM,39.2,28.4,65,30.26,9.0,WNW,6.9,-,N/A,,Overcast,290,2013-03-07 18:31:00
1:53 PM,41.0,28.9,62,30.28,10.0,NW,4.6,-,N/A,,Overcast,320,2013-03-07 18:53:00
2:25 PM,41.0,28.4,61,30.25,10.0,NNW,8.1,-,N/A,,Overcast,330,2013-03-07 19:25:00
2:53 PM,39.9,28.9,65,30.28,10.0,WNW,8.1,-,N/A,,Mostly Cloudy,300,2013-03-07 19:53:00
3:53 PM,41.0,28.0,60,30.28,10.0,NNW,5.8,-,N/A,,Overcast,340,2013-03-07 20:53:00
4:53 PM,39.9,27.0,60,30.29,10.0,NNW,10.4,-,N/A,,Overcast,330,2013-03-07 21:53:00
5:53 PM,37.9,27.0,65,30.31,10.0,NNW,5.8,-,N/A,,Clear,330,2013-03-07 22:53:00
6:53 PM,37.0,26.1,65,30.32,10.0,NNW,5.8,-,N/A,,Overcast,330,2013-03-07 23:53:00
7:53 PM,35.1,26.1,70,30.34,10.0,North,6.9,-,N/A,,Overcast,360,2013-03-08 00:53:00
8:53 PM,35.1,26.1,70,30.35,10.0,NNW,5.8,-,N/A,,Overcast,340,2013-03-08 01:53:00
9:53 PM,34.0,26.1,73,30.35,10.0,NNW,3.5,-,N/A,,Overcast,330,2013-03-08 02:53:00
10:28 PM,33.8,26.6,75,30.33,10.0,NW,5.8,-,N/A,,Overcast,320,2013-03-08 03:28:00
10:53 PM,34.0,27.0,75,30.36,5.0,NW,4.6,-,0.00,Snow,Light Snow,320,2013-03-08 03:53:00
11:53 PM,33.1,28.0,82,30.36,9.0,NNW,4.6,-,0.00,,Overcast,340,2013-03-08 04:53:00